Location: Berg
(47.2344°N, 9.5296°E)
Time: 11:00:08
(UTC+00:00)

AAUSAT CUBESAT 2 - Pass Details

Date: 29 November 2021
Orbit: 571 x 586 km, 97.5° (Epoch: 20 January)

Event Time Altitude Azimuth Distance (km) Brightness Sun altitude
Rises 05:04:13 0° 7° (N) 2,794 ? -16.6°
Reaches altitude 10° 05:06:25 10° 2° (N) 1,892 ? -16.2°
Maximum altitude 05:10:22 49° 288° (WNW) 753 ? -15.6°
Drops below altitude 10° 05:14:19 10° 214° (SW) 1,885 ? -14.9°
Sets 05:16:30 0° 209° (SSW) 2,782 ? -14.6°
